Regional Weather Roundup
Issued by NWS

Home | Current Version | Previous Version | Text Only | Print | Product List | Glossary Off
Versions: 1 2 3 4 5 6 7 8 9 10 11 12 13 14 15 16 17 18 19 20 21 22 23 24 25 26 27 28 29 30 31 32 33 34 35 36 37 38 39 40 41 42 43 44 45 46 47 48 49 50

000
ASUS43 KLOT 051208
RWRIL

ILLINOIS REGIONAL WEATHER ROUNDUP
NATIONAL WEATHER SERVICE CHICAGO/ROMEOVILLE IL
700 AM CDT SAT SEP 05 2015

NOTE: "FAIR" INDICATES FEW OR NO CLOUDS BELOW 12,000 FEET WITH NO
SIGNIFICANT WEATHER AND/OR OBSTRUCTIONS TO VISIBILITY.

* THESE STATIONS ARE NOT UNDER NWS QUALITY CONTROL. THEY ALSO MAY NOT
  REPORT WEATHER SUCH AS PRECIPITATION OR FOG.

ILZ001-002-007-009-015-016-024-051300-
NORTHWEST ILLINOIS

CITY           SKY/WX    TMP DP  RH WIND       PRES   REMARKS
MOLINE         MOCLDY    73  68  84 CALM      30.05S
6HR MIN TEMP:  72; 6HR MAX TEMP:  77;

STERLING*      CLOUDY   N/A N/A N/A CALM      30.05R
SAVANNA*       CLOUDY    72  70  93 SE3       30.05S FOG
$$

ILZ003-004-008-010-011-017-018-051300-
NORTH CENTRAL ILLINOIS

CITY           SKY/WX    TMP DP  RH WIND       PRES   REMARKS
ROCKFORD       MOCLDY    70  66  87 CALM      30.08S
6HR MIN TEMP:  69; 6HR MAX TEMP:  70;

FREEPORT*        N/A     68  67  98 CALM      30.09S FOG
ROCHELLE*      MOCLDY    70  68  94 S5        30.08S
DE KALB*       PTCLDY    67  66  96 S5        30.09R FOG
PERU*          CLOUDY    70  67  90 CALM      30.09S
$$

ILZ005-006-012>014-019>023-051300-
NORTHEAST ILLINOIS

CITY           SKY/WX    TMP DP  RH WIND       PRES   REMARKS
CHICAGO-OHARE  MOCLDY    71  67  87 S5        30.07S
6HR MIN TEMP:  69; 6HR MAX TEMP:  72;

CHICAGO-MIDWAY MOCLDY    73  65  75 S8        30.08R
6HR MIN TEMP:  73; 6HR MAX TEMP:  75;

AURORA         FAIR      70  66  87 SE7       30.09R
6HR MIN TEMP:  67; 6HR MAX TEMP:  71;

LANSING*       MOCLDY    70  65  84 SW7       30.10R THUNDER
JOLIET*        PTCLDY    69  68  96 CALM      30.09S
WAUKEGAN       MOCLDY    66  66 100 CALM      30.07S FOG
6HR MIN TEMP:  64; 6HR MAX TEMP:  67;

DUPAGE AIRPORT PTCLDY    69  66  90 S6        30.08R
6HR MIN TEMP:  67; 6HR MAX TEMP:  71;

KANKAKEE*      TSTM      67  67  99 E13       30.14R
WHEELING       NOT AVBL
MORRIS*        PTCLDY    68  65  91 SE5       30.08R
ROMEOVILLE*    PTCLDY    69  66  92 SW6       30.09S
NORTHERLY ISL    N/A     72  65  78 S7          N/A
$$

LMZ740>746-051300-
SOUTHERN LAKE MICHIGAN

STATION/POSITION SKY/WX   TEMP    WIND        PRES    VSBY  WAVE
                          AIR SEA DIR/SP/G                  HT/PER
                          (F)     (DEG/KT/KT) (MB)    (MI)  (FT/S)
SOUTHERN BUOY              69 71  110/  8/ 10 1017.8F
WILMETTE HARBOR            71 71  350/  6/  8   N/A           1
HARRISON CRIB              71     180/ 14/ 16   N/A
BURNHAM HARBOR             72     230/  6/ 11   N/A
CALUMET HARBOR             71     180/  7/ 10   N/A
BURNS HARBOR               70     190/  9/ 11 1019.0S
MICHIGAN CITY              71     150/ 11/ 14   N/A
MICHIGAN CITY 6N           71 73  200/  8/ 10   N/A           1/ 2
ST. JOSEPH                 72 73  220/  8/ 10   N/A           1/ 2
$$

ILZ025>027-034>036-040-047-049-050-058-095>099-051300-
WEST-CENTRAL ILLINOIS

CITY           SKY/WX    TMP DP  RH WIND       PRES   REMARKS
QUINCY         CLEAR     72  69  90 S5        30.07R
GALESBURG*     MOCLDY    71  68  89 SE5       30.08R
MACOMB*        PTCLDY    67  67  98 CALM      30.10R FOG
JACKSONVILLE*  CLEAR     71  68  90 SE3       30.09R
PITTSFIELD*    CLEAR     70  68  93 CALM      30.10R FOG
$$

ILZ028>032-037-038-041>044-048-051>054-059>061-051300-
CENTRAL ILLINOIS

CITY           SKY/WX    TMP DP  RH WIND       PRES   REMARKS
PONTIAC        MOCLDY    69  67  96 S3        30.10S FOG
BLOOMINGTON    PTCLDY    70  66  86 S7        30.12R
DECATUR        CLEAR     68  62  81 CALM      30.10S
PEORIA         MOCLDY    74  67  78 CALM      30.09S
6HR MIN TEMP:  73; 6HR MAX TEMP:  78;

LACON*         CLOUDY    72  67  83 S5        30.08R
LINCOLN*       PTCLDY    69  64  84 CALM      30.10R
SPRINGFIELD    CLEAR     70  65  84 CALM      30.10R
6HR MIN TEMP:  69; 6HR MAX TEMP:  76;

TAYLORVILLE    CLEAR     66  64  94 SE3       30.10R
$$

ILZ033-039-045-046-055>057-062-063-051300-
EAST-CENTRAL ILLINOIS

CITY           SKY/WX    TMP DP  RH WIND       PRES   REMARKS
CHAMPAIGN      PTCLDY    69  67  93 S5        30.11R FOG
RANTOUL*       MOCLDY    69  66  92 CALM      30.11R
MATTOON        CLEAR     71  67  87 S7        30.10S
PARIS*         CLEAR     67  67  98 SE3       30.12R FOG
$$

ILZ079-100>102-051300-
SOUTHWEST ILLINOIS

CITY           SKY/WX    TMP DP  RH WIND       PRES   REMARKS
ALTON          CLEAR     68  66  94 CALM      30.09S FOG
BELLEVILLE     CLEAR     69  69 100 CALM      30.08R
CAHOKIA*       CLEAR     70  67  90 SE3       30.09R FOG
SPARTA*        CLEAR     67  67  98 CALM      30.10R FOG
$$

ILZ064>066-069>071-074>076-080>082-084>086-088>090-092>094-051300-
SOUTH-CENTRAL ILLINOIS

CITY           SKY/WX    TMP DP  RH WIND       PRES   REMARKS
CARBONDALE     FOG       67  65  93 CALM      30.09R VSB 3/4
6HR MIN TEMP:  66; 6HR MAX TEMP:  71;

CAIRO*         FOG       66  66 100 CALM      30.07R VSB<1/4
EFFINGHAM*     CLEAR     66  64  91 CALM      30.12R FOG
MARION         MOCLDY    70  70 100 CALM      30.10R
MT. VERNON     CLEAR     66  61  82 CALM      30.11R
CENTRALIA*       N/A     67  67 100 CALM      30.10R FOG
SALEM*         CLEAR     71  67  89 CALM      30.11R
METROPOLIS*      N/A     67  67 100 CALM      30.09R FOG
$$

ILZ067-068-072-073-078-083-087-091-051300-
SOUTHEAST ILLINOIS

CITY           SKY/WX    TMP DP  RH WIND       PRES   REMARKS
LAWRENCEVILLE  CLEAR     69  67  93 E3        30.11R FOG
FLORA*         CLEAR     67  66  95 N3        30.12R FOG
FAIRFIELD*     CLEAR     68  67  96 CALM      30.10R FOG
HARRISBURG*    CLEAR     67  67  98 CALM      30.10R FOG
ROBINSON*      CLEAR     65  64  96 CALM      30.12R FOG
CARMI*         CLEAR     65  65  99 CALM      30.09S FOG
$$

ABBREVIATIONS USED IN REMARKS
   TC - TEMPERATURE IN CELSIUS
  WCI - WIND CHILL INDEX
   HX - HEAT INDEX
  VSB - VISIBILITY
$$




USA.gov is the U.S. government's official web portal to all federal, state and local government web resources and services.